Zurück zum Katalog

ONEWEB-0302

AktivKommunikationPO
NORAD 49091·PAYLOAD·🇬🇧 United Kingdom

Gestartet Aug 21, 2021 von Baikonur Cosmodrome

Loading…

Nächste Überflüge (nächste 24 Stunden)

TLE

AktuellSource: CelesTrak SupGP

Epoche: Sep 14, 2026, 23:10 UTC

1 49091C 21075S   26257.96581436  .00000695  00000+0  19330-2 0  2576
2 49091  87.8988 332.8427 0001558 101.0244 294.6019 13.12444640    14

Verfolge ONEWEB-0302 in Echtzeit mit AllMySat

Download on the App Store